FENGYUN 3F

Last updated on Thu Oct 30 2025 00:02:23 GMT+0000 (Coordinated Universal Time)

1 57490U 23111A 25302.47801090 .00000102 00000+0 68633-4 0 9996 2 57490 98.7135 11.4750 0001336 80.6274 279.5053 14.19875838116124
UTC large
Height (km)
Speed (km/s)
/
Latitude / Longitude
Inclination (degrees)
Orbital Period (minutes)
Azimuth
Elevation
Range (km)
Doppler Factor

Next 0 passes for location: London (51.5072 / 0.1276)

Sorry there are no passes over London.